Location: Newark
(45.4422°N, 16.2769°E)
Time: 13:38:30
(UTC+00:00)

Vanguard 2 - Pass Details

Date: 13 December 2019
Orbit: 553 x 2938 km, 32.9° (Epoch: 22 January)

Event Time Altitude Azimuth Distance (km) Brightness Sun altitude
Rises 02:25:23 0° 260° (W) 6,221 - -41.1°
Reaches altitude 10° 02:29:20 10° 256° (WSW) 5,418 - -40.4°
Exits shadow 02:42:03 48° 216° (SW) 3,535 10.4 -38.2°
Maximum altitude 02:45:34 53° 187° (S) 3,403 10.5 -37.6°
Drops below altitude 10° 03:01:21 10° 117° (ESE) 5,278 12.4 -34.8°
Sets 03:05:08 0° 113° (ESE) 6,056 13.0 -34.2°
